Location: ?
(35.2180°N, 139.6392°E)
Time: 10:32:16
(UTC+00:00)

Cosmos 2278 Rocket - Pass Details

Date: 05 August 2024
Orbit: 841 x 844 km, 71.0° (Epoch: 18 September)

Event Time Altitude Azimuth Distance (km) Brightness Sun altitude
Rises 18:25:12 0° 341° (NNW) 3,401 5.6 -16.8°
Reaches altitude 10° 18:27:41 10° 345° (NNW) 2,464 4.9 -16.4°
Maximum altitude 18:33:18 66° 67° (ENE) 916 2.6 -15.5°
Drops below altitude 10° 18:38:54 10° 150° (SSE) 2,453 4.6 -14.5°
Sets 18:41:21 0° 153° (SSE) 3,384 5.3 -14.1°
